カタログに戻る

COSMOS 839 DEB

運用中LEO
NORAD 17838·DEBRIS·🇷🇺 Russia

打ち上げ Jul 8, 1976 から Plesetsk Cosmodrome

Loading…

次のパス (今後24時間)

TLE

経年Source: Space-Track

元期: Sep 12, 2026, 00:44 UTC

1 17838U 76067BK  26255.03063116  .00000253  00000-0  10363-2 0  9998
2 17838  65.9808 261.7817 0631605 164.7496 231.5625 12.46724941576377

AllMySatでCOSMOS 839 DEBをリアルタイム追跡

Download on the App Store